Farmington, MO

7:21 AM CDT on October 15, 2019 (GMT -0500)
Farmington Regional

Weather History for KFAM - July, 2019

Change the Weather History Date:

Wednesday, July 24, 2019

  Actual Average Record
Temperature  
Mean Temperature 71 °F -  
Max Temperature 81 °F 83 °F 102 °F (2012)
Min Temperature 61 °F 65 °F 53 °F (2000)
Cooling Degree Days 6    
Growing Degree Days 21 (Base 50)    
Moisture  
Dew Point 61 °F    
Average Humidity 72    
Maximum Humidity 97    
Minimum Humidity 47    
Precipitation  
Precipitation 0.00 in - - ()
Sea Level Pressure  
Sea Level Pressure 30.19 in    
Wind  
Wind Speed 2 mph (NE)    
Max Wind Speed 9 mph    
Max Gust Speed -    
Visibility 10 miles    
Events      
Averages and records for this station are not official NWS values.
T = Trace of Precipitation, MM = Missing Value Source: NWS Daily Summary

Daily Weather History Graph

Daily Weather History Graph

Search for Another Location

Airport or City:

Astronomy

Jul. 24, 2019 Rise Set
Actual Time 5:58 AM CDT 8:17 PM CDT
Civil Twilight 5:28 AM CDT 8:47 PM CDT
Nautical Twilight 4:52 AM CDT 9:23 PM CDT
Astronomical Twilight 4:11 AM CDT 10:03 PM CDT
Moon 12:12 AM CDT (7/24) 1:02 PM CDT (7/24)
Length of Visible Light 15h 18m
Length of Day
14h 18m
Waning Gibbous, 53% of the Moon is Illuminated
Jul 24
Waning Gibbous
Jul 24
Last Quarter
Jul 31
New
Aug 7
First Quarter
Aug 15
Full

Hourly Weather History & Observations

Time (CDT) Temp. Heat Index Dew Point Humidity Pressure Visibility Wind Dir Wind Speed Gust Speed Precip Events Conditions
12:56 AM 63.0 °F - 59.0 °F 87% 30.18 in 10.0 mi Calm Calm - N/A   Clear
1:56 AM 61.0 °F - 59.0 °F 93% 30.17 in 10.0 mi Calm Calm - N/A   Clear
2:56 AM 62.1 °F - 59.0 °F 90% 30.17 in 10.0 mi West 3.5 mph - N/A   Clear
3:56 AM 62.1 °F - 59.0 °F 90% 30.17 in 10.0 mi Calm Calm - N/A   Clear
4:56 AM 64.9 °F - 59.0 °F 81% 30.18 in 10.0 mi NNW 5.8 mph - N/A   Clear
5:56 AM 61.0 °F - 57.9 °F 90% 30.19 in 10.0 mi Calm Calm - N/A   Clear
6:56 AM 62.1 °F - 60.1 °F 93% 30.21 in 10.0 mi Calm Calm - N/A   Clear
7:07 AM 64.4 °F - 60.8 °F 88% 30.20 in 10.0 mi Calm Calm - N/A   Partly Cloudy
7:56 AM 68.0 °F - 62.1 °F 81% 30.23 in 10.0 mi Calm Calm - N/A   Clear
8:56 AM 71.1 °F - 62.1 °F 73% 30.24 in 10.0 mi Calm Calm - N/A   Clear
9:56 AM 75.9 °F - 61.0 °F 60% 30.24 in 10.0 mi NNE 4.6 mph - N/A   Clear
10:56 AM 77.0 °F - 60.1 °F 56% 30.23 in 10.0 mi Variable 6.9 mph - N/A   Clear
11:56 AM 79.0 °F - 59.0 °F 50% 30.22 in 10.0 mi NE 8.1 mph - N/A   Clear
12:56 PM 80.1 °F 80.6 °F 57.9 °F 47% 30.20 in 10.0 mi NNE 9.2 mph - N/A   Clear
1:56 PM 81.0 °F 81.3 °F 59.0 °F 47% 30.19 in 10.0 mi NW 4.6 mph - N/A   Clear
2:56 PM 81.0 °F 81.3 °F 59.0 °F 47% 30.17 in 10.0 mi Variable 5.8 mph - N/A   Clear
3:56 PM 81.0 °F 81.7 °F 61.0 °F 50% 30.17 in 10.0 mi ENE 9.2 mph - N/A   Mostly Cloudy
4:38 PM 80.6 °F 81.5 °F 60.8 °F 51% 30.15 in 10.0 mi East 6.9 mph - N/A   Partly Cloudy
4:56 PM 81.0 °F 81.7 °F 61.0 °F 50% 30.16 in 10.0 mi East 8.1 mph - N/A   Mostly Cloudy
5:56 PM 81.0 °F 81.9 °F 62.1 °F 52% 30.16 in 10.0 mi ENE 4.6 mph - N/A   Clear
6:56 PM 78.1 °F - 62.1 °F 58% 30.16 in 10.0 mi East 5.8 mph - N/A   Clear
7:56 PM 75.0 °F - 63.0 °F 66% 30.16 in 10.0 mi East 4.6 mph - N/A   Clear
8:56 PM 71.1 °F - 64.0 °F 78% 30.16 in 10.0 mi Calm Calm - N/A   Clear
9:56 PM 66.9 °F - 64.9 °F 93% 30.17 in 10.0 mi Calm Calm - N/A   Clear
10:56 PM 66.0 °F - 64.9 °F 96% 30.17 in 10.0 mi Calm Calm - N/A   Clear
11:56 PM 64.9 °F - 64.0 °F 97% 30.18 in 8.0 mi Calm Calm - N/A   Clear